Volver al catálogo

XINGYUN-2 02

ActivoComunicacionesSSO
NORAD 45603·PAYLOAD·🇨🇳 China

Lanzado May 12, 2020 desde Jiuquan Satellite Launch Center

Loading…

Próximos Pases (próximas 24 horas)

TLE

ActualizadoSource: Space-Track

Época: Sep 14, 2026, 14:43 UTC

1 45603U 20028B   26257.61338674  .00001859  00000-0  11241-3 0  9995
2 45603  97.5106 262.0688 0010218 332.4072  27.6615 15.11840410348347

Sigue XINGYUN-2 02 en tiempo real con AllMySat

Download on the App Store